Date,TemperatureHighF,TemperatureAvgF,TemperatureLowF,DewpointHighF,DewpointAvgF,DewpointLowF,HumidityHigh,HumidityAvg,HumidityLow,PressureMaxIn,PressureMinIn,WindSpeedMaxMPH,WindSpeedAvgMPH,GustSpeedMaxMPH,PrecipitationSumIn
2013-1-1,41,37,30,31,29,24,85,72,61,30.02,29.90,6,1,10,0.00
2013-1-2,35,30,22,29,21,16,85,70,51,30.23,29.99,9,2,14,0.00
2013-1-3,38,26,14,22,18,12,98,73,47,30.24,30.13,9,1,12,0.00
2013-1-4,40,34,32,25,22,20,65,61,51,30.21,30.11,12,7,17,0.00
2013-1-5,45,35,27,29,23,21,87,64,41,30.37,30.15,13,4,21,0.00
2013-1-6,45,38,26,32,29,23,92,73,54,30.17,30.02,4,1,10,0.00
2013-1-7,41,34,19,32,26,17,92,72,56,30.44,30.15,7,2,12,0.00
2013-1-8,56,31,18,34,24,16,100,78,38,30.41,30.33,3,0,6,0.00
2013-1-9,52,36,21,44,31,19,95,82,51,30.40,30.22,8,1,13,0.00
2013-1-10,56,44,30,34,31,25,86,62,38,30.59,30.39,9,1,15,0.00
2013-1-11,49,41,31,43,35,28,96,81,54,30.45,30.07,3,0,7,0.06
2013-1-12,55,44,38,50,42,37,97,94,82,30.16,30.07,1,0,2,0.00
2013-1-13,61,48,39,54,46,38,97,93,78,30.08,29.91,1,0,4,0.00
2013-1-14,61,49,38,58,44,35,97,81,61,30.30,29.91,9,2,16,0.26
2013-1-15,40,37,34,36,34,31,95,88,76,30.34,30.15,2,0,4,0.56
2013-1-16,42,35,32,39,34,31,96,95,86,30.15,29.83,4,0,7,0.52
2013-1-17,43,39,34,37,31,26,90,75,56,30.13,29.97,7,2,12,0.00
2013-1-18,38,31,20,28,19,11,91,62,34,30.48,30.06,10,4,15,0.00
2013-1-19,58,43,30,30,25,21,73,51,29,30.36,29.90,5,2,11,0.00
2013-1-20,54,43,32,32,21,9,68,42,23,30.07,29.80,15,6,23,0.00
2013-1-21,42,30,19,21,17,10,88,60,34,30.08,29.79,13,3,18,0.00
2013-1-22,24,16,11,10,0,-4,65,50,36,30.30,29.97,16,7,25,0.00
2013-1-23,24,17,8,13,3,0,82,55,37,30.35,30.13,11,3,14,0.00
2013-1-24,25,18,7,14,8,0,89,69,41,30.54,30.09,8,2,14,0.02
2013-1-25,22,16,9,17,10,2,89,76,56,30.53,30.06,4,1,7,0.00
2013-1-26,32,24,12,27,20,9,96,86,65,30.45,30.07,4,0,7,0.08
2013-1-27,36,25,11,22,17,7,92,73,55,30.59,30.44,4,0,6,0.00
2013-1-28,52,38,28,45,34,22,95,86,77,30.45,30.03,4,1,9,0.18
2013-1-29,70,58,48,56,50,45,93,77,60,30.09,29.90,4,1,8,0.02
2013-1-30,72,55,42,61,52,40,100,90,68,29.90,29.21,11,1,18,1.42
2013-1-31,55,38,28,53,26,13,97,64,47,29.88,29.14,20,10,32,0.16
2013-2-1,29,22,14,24,11,4,91,63,48,30.39,29.80,16,7,24,0.00
2013-2-2,28,19,9,22,12,5,89,75,52,30.39,30.01,4,1,7,0.00
2013-2-3,34,27,21,29,23,14,93,85,62,30.01,29.80,12,2,16,0.00
2013-2-4,38,30,23,24,17,12,77,60,46,30.08,29.87,9,3,14,0.00
2013-2-5,38,32,28,34,29,23,95,89,79,29.93,29.83,1,0,3,0.02
2013-2-6,41,34,21,34,28,18,96,80,62,30.34,29.92,8,3,14,0.01
2013-2-7,39,30,19,27,24,16,93,77,60,30.42,30.19,5,1,9,0.00
2013-2-8,41,35,31,37,30,22,93,83,68,30.19,29.78,13,3,22,0.04
2013-2-9,40,31,18,23,18,14,85,60,36,30.39,29.97,16,7,28,0.00
2013-2-10,44,31,13,23,18,10,92,62,36,30.45,30.17,6,2,10,0.00
2013-2-11,66,49,34,52,37,24,96,68,25,30.18,29.66,14,4,22,0.17
2013-2-12,56,46,31,32,27,23,76,49,30,29.96,29.81,15,6,26,0.00
2013-2-13,43,33,21,33,28,19,96,82,62,29.92,29.66,2,0,7,0.05
2013-2-14,49,36,23,34,28,21,95,76,47,30.00,29.78,6,1,9,0.14
2013-2-15,53,39,23,37,32,21,94,75,48,30.02,29.91,8,1,13,0.19
2013-2-16,37,32,26,32,23,13,95,69,50,29.99,29.86,6,2,10,0.00
2013-2-17,29,24,20,17,12,6,79,62,44,30.24,29.87,15,7,25,0.00
2013-2-18,44,29,14,21,13,6,83,52,29,30.38,30.09,7,2,12,0.00
2013-2-19,53,38,24,41,29,19,87,70,48,30.09,29.66,13,4,18,0.06
2013-2-20,35,29,22,21,14,8,61,55,48,30.18,29.84,14,8,22,0.00
2013-2-21,37,27,22,19,15,9,76,59,45,30.33,30.14,11,5,17,0.00
2013-2-22,32,29,24,28,23,17,88,79,65,30.37,30.16,5,1,9,0.01
2013-2-23,50,37,31,42,33,28,95,86,70,30.17,29.82,2,0,4,0.00
2013-2-24,49,38,28,37,28,18,95,70,43,30.12,29.80,13,4,19,0.00
2013-2-25,46,30,18,24,20,15,90,69,40,30.22,30.12,5,1,9,0.00
2013-2-26,39,31,19,38,28,16,96,90,71,30.20,29.64,3,0,6,0.83
2013-2-27,53,43,36,43,36,32,100,78,52,29.68,29.57,10,3,15,0.02
2013-2-28,42,39,34,35,30,26,85,69,56,29.73,29.63,11,5,17,0.00
2013-3-1,40,37,33,30,27,23,75,68,57,29.90,29.73,9,5,12,0.00
2013-3-2,35,31,28,24,21,17,74,66,58,29.91,29.82,8,4,13,0.00
2013-3-3,38,31,27,22,19,16,76,62,47,29.95,29.83,13,6,20,0.00
2013-3-4,41,31,22,22,17,14,79,56,38,30.05,29.94,13,6,21,0.00
2013-3-5,50,38,23,30,21,17,93,52,30,30.07,29.78,7,1,13,0.00
2013-3-6,40,35,32,34,31,29,99,86,69,30.03,29.67,6,2,14,0.75
2013-3-7,44,39,34,31,29,27,80,67,56,30.18,30.03,9,3,14,0.01
2013-3-8,46,38,34,32,28,25,77,66,53,30.31,30.17,10,6,24,0.00
2013-3-9,60,40,26,34,27,22,92,65,26,30.38,30.24,7,2,10,0.00
2013-3-10,63,43,22,34,27,20,94,59,28,30.29,30.16,5,1,11,0.00
2013-3-11,58,49,41,49,37,24,85,66,34,30.16,29.83,7,2,13,0.00
2013-3-12,57,49,39,52,42,28,93,76,58,29.96,29.73,11,5,18,0.61
2013-3-13,46,37,26,31,25,19,90,64,41,30.07,29.90,17,6,24,0.00
2013-3-14,43,36,29,23,19,16,71,51,39,30.15,30.05,16,9,23,0.00
2013-3-15,58,41,22,36,26,17,86,57,36,30.10,29.76,10,2,16,0.00
2013-3-16,55,42,34,42,36,29,88,77,60,29.91,29.61,3,1,10,0.01
2013-3-17,39,36,33,33,28,24,90,75,57,30.25,29.91,3,0,7,0.00
2013-3-18,35,32,30,31,29,25,96,89,65,30.29,29.88,3,0,7,0.20
2013-3-19,56,41,32,42,27,10,97,66,20,29.93,29.72,18,5,28,0.24
2013-3-20,51,40,31,29,18,12,75,42,26,29.98,29.74,13,7,22,0.00
2013-3-21,34,30,24,27,16,9,74,57,39,29.91,29.78,13,5,20,0.00
2013-3-22,45,33,25,23,18,13,78,53,37,30.01,29.89,13,5,19,0.00
2013-3-23,53,36,19,27,22,16,90,60,30,30.03,29.91,9,2,14,0.00
2013-3-24,40,31,22,30,25,18,94,78,50,30.00,29.63,3,0,6,0.00
2013-3-25,39,34,31,35,32,30,96,93,82,29.71,29.52,2,0,3,0.62
2013-3-26,48,39,32,33,30,26,95,73,49,30.01,29.71,9,4,14,0.00
2013-3-27,47,39,32,34,29,26,82,68,47,30.13,30.01,13,6,19,0.00
2013-3-28,46,39,31,32,29,26,89,68,56,30.24,30.08,11,4,15,0.00
2013-3-29,54,42,28,35,30,25,91,66,36,30.25,30.13,8,2,13,0.00
2013-3-30,60,40,24,35,27,22,93,65,24,30.24,30.07,6,1,12,0.00
2013-3-31,50,40,30,47,38,27,96,90,83,30.09,29.73,2,0,5,0.18
2013-4-1,58,44,32,46,35,18,97,70,46,29.98,29.74,15,4,22,0.00
2013-4-2,46,35,22,22,18,13,92,52,29,30.17,29.98,11,4,19,0.00
2013-4-3,49,34,21,23,18,11,86,55,26,30.40,30.17,13,4,18,0.00
2013-4-4,49,34,16,31,16,12,88,54,25,30.40,30.05,5,1,10,0.00
2013-4-5,64,48,31,37,30,20,95,56,27,30.06,29.82,10,3,17,0.00
2013-4-6,57,44,30,30,23,17,73,45,24,30.30,30.06,4,1,9,0.00
2013-4-7,71,56,38,45,38,26,73,51,35,30.20,29.91,6,2,16,0.00
2013-4-8,80,68,54,50,46,44,70,47,29,30.03,29.87,6,1,13,0.00
2013-4-9,86,72,54,58,53,47,80,53,33,30.05,29.87,8,2,12,0.00
2013-4-10,90,76,57,61,55,49,79,51,31,29.93,29.72,9,2,16,0.00
2013-4-11,85,70,50,62,56,48,94,64,43,29.85,29.66,5,1,10,0.00
2013-4-12,74,58,52,65,54,39,96,87,53,29.77,29.52,7,1,18,0.43
2013-4-13,69,54,41,42,36,28,90,54,27,29.94,29.77,10,4,17,0.00
2013-4-14,68,51,34,47,37,31,92,62,34,30.13,29.94,7,1,11,0.00
2013-4-15,64,58,52,52,48,42,85,69,58,30.23,30.08,6,2,12,0.00
2013-4-16,76,64,54,62,56,50,89,75,58,30.23,30.05,8,2,13,0.00
2013-4-17,71,64,52,63,58,50,97,84,70,30.18,30.08,8,0,8,0.26
2013-4-18,75,66,60,65,59,56,92,78,61,30.17,29.90,8,3,17,0.01
2013-4-19,74,65,51,65,57,37,93,77,61,29.90,29.54,11,5,16,0.64
2013-4-20,58,50,41,38,30,25,61,48,34,30.34,29.77,13,7,19,0.00
2013-4-21,54,42,31,34,28,22,91,59,34,30.59,30.34,3,1,8,0.00
2013-4-22,58,44,29,40,33,28,95,70,42,30.56,30.36,4,1,9,0.00
2013-4-23,61,45,33,47,39,30,93,79,58,30.39,30.07,3,0,6,0.00
2013-4-24,77,56,34,58,47,32,97,75,46,30.08,29.72,15,3,24,0.02
2013-4-25,66,51,40,42,35,30,80,55,30,30.29,30.02,11,2,19,0.01
2013-4-26,65,49,33,42,37,30,96,66,39,30.46,30.29,3,1,9,0.00
2013-4-27,71,53,32,47,40,31,96,67,36,30.40,30.23,4,1,11,0.00
2013-4-28,59,49,37,49,45,35,95,86,53,30.24,30.10,4,1,10,0.12
2013-4-29,61,55,52,57,52,48,96,91,84,30.10,29.99,3,1,7,0.05
2013-4-30,60,56,53,57,54,52,96,91,86,30.27,30.07,3,0,6,0.02
2013-5-1,71,59,45,52,44,37,94,61,29,30.39,30.26,3,1,8,0.00
2013-5-2,71,53,34,50,43,33,97,72,42,30.41,30.28,5,1,9,0.00
2013-5-3,69,52,36,51,43,34,97,74,43,30.36,30.24,5,1,9,0.00
2013-5-4,69,53,35,49,43,32,95,71,40,30.31,30.14,5,1,11,0.00
2013-5-5,65,49,33,46,40,31,96,73,44,30.22,30.10,4,1,10,0.00
2013-5-6,58,51,37,56,48,35,95,91,83,30.16,30.03,1,0,5,0.06
2013-5-7,61,58,55,60,57,53,97,95,92,30.03,29.89,5,0,10,1.66
2013-5-8,68,56,46,60,53,45,98,89,66,29.98,29.90,3,0,7,0.35
2013-5-9,74,59,46,60,53,45,97,83,55,29.99,29.89,8,2,12,0.00
2013-5-10,83,64,46,67,56,45,100,80,44,29.99,29.82,8,1,16,0.42
2013-5-11,74,65,58,65,60,52,96,84,65,29.85,29.69,6,1,9,0.18
2013-5-12,61,54,38,53,39,29,87,59,36,30.01,29.75,12,6,20,0.00
2013-5-13,57,47,35,36,32,25,92,59,32,30.16,30.01,12,3,20,0.00
2013-5-14,64,48,30,47,36,28,95,66,36,30.21,29.99,5,1,9,0.00
2013-5-15,89,68,45,70,54,42,92,64,33,29.99,29.64,9,2,13,0.00
2013-5-16,80,73,64,65,58,52,78,60,40,29.92,29.72,11,4,13,0.00
2013-5-17,82,69,53,63,58,51,94,70,44,30.08,29.90,4,1,6,0.00
2013-5-18,68,63,59,62,58,53,93,84,71,30.18,30.07,3,1,7,0.07
2013-5-19,72,63,58,66,60,56,96,92,79,30.17,30.05,3,0,7,0.03
2013-5-20,82,71,58,71,65,57,98,85,67,30.08,29.93,3,0,9,0.00
2013-5-21,88,74,59,74,67,57,97,79,55,29.95,29.81,3,1,8,0.00
2013-5-22,90,73,59,71,65,58,98,80,43,29.89,29.76,12,1,16,0.37
2013-5-23,78,68,63,69,64,62,96,90,73,29.86,29.71,5,0,7,0.22
2013-5-24,63,54,45,62,45,31,96,73,52,30.19,29.73,11,5,20,0.00
2013-5-25,64,51,39,43,36,31,75,59,37,30.22,30.11,13,5,19,0.00
2013-5-26,71,56,40,45,39,34,90,57,26,30.22,30.12,9,3,14,0.00
2013-5-27,67,55,38,55,45,36,95,73,45,30.28,30.16,4,0,6,0.00
2013-5-28,82,65,51,70,59,49,96,84,62,30.17,30.01,3,0,7,0.05
2013-5-29,88,75,58,71,64,56,97,72,43,30.08,30.02,7,1,11,0.00
2013-5-30,66,63,61,64,61,59,94,93,91,30.12,30.05,0,0,0,0.00
2013-5-31,90,80,61,68,65,58,93,62,41,30.11,29.96,3,1,6,0.00
2013-6-1,90,79,66,72,67,62,90,67,49,30.00,29.85,4,1,9,0.00
2013-6-2,82,73,68,72,67,62,95,81,67,29.85,29.79,3,0,7,0.62
2013-6-3,77,68,64,68,64,59,97,88,63,29.86,29.81,5,1,12,0.09
2013-6-4,74,62,51,55,50,46,93,68,42,30.11,29.97,3,1,10,0.00
2013-6-5,77,64,49,62,56,48,96,77,53,30.15,30.00,5,1,9,0.00
2013-6-6,66,64,62,63,61,52,96,91,69,30.01,29.82,2,0,9,0.61
2013-6-7,67,65,63,66,64,62,97,95,92,29.82,29.62,4,0,8,0.35
2013-6-8,81,69,60,65,61,56,92,78,55,30.07,29.72,6,2,11,0.00
2013-6-9,78,69,59,71,64,57,94,84,67,30.17,30.05,3,0,7,0.00
2013-6-10,81,70,67,75,68,65,97,94,77,30.06,29.75,9,0,13,1.14
2013-6-11,80,72,64,68,65,62,96,79,63,29.83,29.76,11,3,17,0.00
2013-6-12,87,76,64,72,66,62,95,74,56,29.85,29.75,8,3,15,0.06
2013-6-13,83,71,66,72,65,55,95,81,63,29.75,29.47,10,4,17,0.36
2013-6-14,79,68,61,60,55,52,89,65,40,29.98,29.62,6,3,13,0.00
2013-6-15,82,68,53,64,56,50,95,69,35,30.07,29.97,7,2,11,0.00
2013-6-16,80,73,58,69,63,55,93,72,62,30.00,29.86,7,2,12,0.00
2013-6-17,86,75,64,71,66,61,94,76,52,29.93,29.84,5,1,7,0.00
2013-6-18,74,70,66,71,67,64,95,91,85,29.88,29.76,4,1,7,0.56
2013-6-19,79,69,59,65,62,57,94,79,51,30.11,29.87,3,0,7,0.00
2013-6-20,79,68,57,68,62,55,97,83,63,30.21,30.11,5,1,9,0.00
2013-6-21,78,63,55,64,58,53,95,84,60,30.25,30.20,4,0,6,0.00
2013-6-22,87,78,59,71,67,58,97,69,53,30.21,30.07,4,1,10,0.00
2013-6-23,87,78,66,73,69,64,96,76,54,30.15,30.02,3,0,7,0.00
2013-6-24,90,75,65,74,68,63,96,81,46,30.12,29.99,15,0,22,0.86
2013-6-25,93,79,66,76,69,61,94,74,50,30.00,29.85,7,1,14,0.00
2013-6-26,88,74,64,75,68,62,95,81,57,29.90,29.80,7,1,13,0.02
2013-6-27,83,74,64,75,69,63,97,85,67,29.80,29.59,6,1,11,0.02
2013-6-28,87,76,66,73,66,61,93,74,53,29.60,29.45,13,2,16,0.00
2013-6-29,86,74,62,68,64,59,96,72,45,29.68,29.49,5,1,8,0.02
2013-6-30,87,74,64,75,69,62,97,85,64,29.80,29.66,4,0,7,0.00
2013-7-1,83,75,69,74,70,67,94,85,70,29.91,29.79,4,1,7,0.02
2013-7-2,84,75,70,74,71,68,96,86,68,30.10,29.91,4,1,10,0.03
2013-7-3,84,76,71,75,72,68,94,86,72,30.18,30.09,3,0,7,0.04
2013-7-4,88,79,68,78,72,66,96,79,60,30.20,30.10,4,1,13,0.01
2013-7-5,90,79,67,77,71,65,97,78,57,30.18,30.06,4,1,10,0.00
2013-7-6,92,81,70,75,71,67,94,73,52,30.15,30.00,3,1,10,0.00
2013-7-7,90,76,69,76,70,66,96,82,60,30.06,29.95,11,1,17,0.09
2013-7-8,88,76,64,72,68,63,97,79,52,30.09,30.00,6,1,10,0.00
2013-7-9,88,76,68,74,70,66,94,81,59,30.08,29.95,3,0,9,0.00
2013-7-10,87,77,71,76,72,67,95,83,65,29.97,29.81,8,1,15,0.28
2013-7-11,83,76,70,70,68,64,93,77,60,29.90,29.82,5,1,8,0.00
2013-7-12,74,66,64,66,64,63,95,92,72,29.97,29.89,2,0,5,0.43
2013-7-13,83,74,68,73,69,66,95,85,67,30.22,30.08,2,0,10,0.00
2013-7-14,80,72,68,74,70,66,97,93,79,30.29,30.22,2,0,6,0.01
2013-7-15,94,82,63,77,72,62,97,73,49,30.29,30.17,3,1,6,0.00
2013-7-16,94,81,70,78,72,68,94,76,49,30.24,30.14,3,0,7,0.00
2013-7-17,95,84,72,77,73,70,92,73,47,30.20,30.05,5,1,10,0.00
2013-7-18,97,83,72,78,74,70,94,77,49,30.10,29.98,4,1,7,0.00
2013-7-19,97,83,72,79,74,68,96,74,46,29.97,29.83,8,1,15,0.22
2013-7-20,93,81,71,76,72,67,91,75,50,29.87,29.75,7,1,10,0.00
2013-7-21,88,76,68,73,70,66,95,83,58,29.92,29.85,4,1,7,0.00
2013-7-22,87,74,66,76,70,65,97,89,64,29.91,29.72,11,1,17,0.84
2013-7-23,86,76,70,72,70,64,97,81,57,29.74,29.63,9,2,14,0.15
2013-7-24,81,72,62,69,64,58,95,76,51,29.91,29.66,8,1,9,0.01
2013-7-25,79,67,57,60,56,52,93,70,44,30.03,29.90,3,1,7,0.00
2013-7-26,83,68,52,64,58,51,97,74,41,30.09,29.99,4,0,6,0.00
2013-7-27,81,69,58,71,65,56,97,88,68,30.01,29.88,4,0,10,0.20
2013-7-28,84,72,62,71,67,60,97,84,59,29.98,29.84,4,0,8,0.13
2013-7-29,79,67,54,61,57,52,96,73,45,30.15,29.97,6,1,11,0.01
2013-7-30,81,68,53,66,59,51,96,76,52,30.21,30.11,3,0,7,0.00
2013-7-31,79,68,58,70,64,57,98,87,71,30.12,29.97,3,0,6,0.44
2013-8-1,83,72,65,73,67,62,96,85,63,29.97,29.78,5,0,8,0.02
2013-8-2,84,73,61,68,62,59,96,73,45,29.94,29.84,7,2,12,0.00
2013-8-3,73,68,63,69,64,60,96,87,67,29.95,29.90,4,0,5,0.16
2013-8-4,80,68,58,64,59,54,97,76,44,30.02,29.92,8,2,13,0.01
2013-8-5,82,67,52,61,56,50,96,72,41,30.10,29.98,4,0,8,0.00
2013-8-6,79,68,61,69,64,59,97,87,66,30.03,29.96,3,0,8,0.54
2013-8-7,84,73,67,74,69,65,95,88,69,30.02,29.93,5,0,10,0.31
2013-8-8,81,74,67,75,71,66,98,91,78,29.99,29.92,2,0,7,0.10
2013-8-9,85,77,72,78,72,70,96,86,69,29.94,29.84,9,1,11,0.09
2013-8-10,84,74,67,71,67,61,95,79,50,30.05,29.93,2,0,5,0.01
2013-8-11,86,74,65,72,68,63,96,82,58,30.08,29.96,3,0,7,0.00
2013-8-12,88,76,64,71,68,63,97,78,48,30.00,29.87,5,1,9,0.00
2013-8-13,84,74,66,72,68,60,95,82,56,29.87,29.71,8,1,11,0.28
2013-8-14,73,63,52,60,52,48,88,69,49,30.09,29.82,8,2,16,0.00
2013-8-15,77,62,48,57,52,46,96,71,39,30.18,30.08,2,0,7,0.00
2013-8-16,80,63,46,60,54,45,97,75,44,30.18,30.11,2,0,5,0.00
2013-8-17,80,65,48,63,57,47,97,78,52,30.25,30.18,4,0,10,0.00
2013-8-18,71,64,60,64,61,58,95,89,72,30.23,30.15,2,0,5,0.16
2013-8-19,80,66,56,70,63,55,97,90,73,30.16,30.03,2,0,5,0.03
2013-8-20,85,70,57,70,63,56,98,81,52,30.16,30.07,5,0,10,0.00
2013-8-21,88,73,60,74,67,58,97,83,60,30.17,30.03,3,0,7,0.02
2013-8-22,86,75,66,71,67,64,95,77,56,30.07,29.90,7,2,12,0.00
2013-8-23,75,68,57,68,64,56,96,89,66,30.11,29.92,1,0,4,0.41
2013-8-24,83,66,54,64,58,53,98,79,42,30.31,30.11,2,0,5,0.00
2013-8-25,82,66,50,66,58,49,98,79,49,30.39,30.23,2,0,7,0.00
2013-8-26,87,73,59,68,63,57,94,72,48,30.25,29.98,5,1,10,0.00
2013-8-27,85,77,66,74,69,63,89,76,67,29.98,29.86,8,2,11,0.00
2013-8-28,75,72,70,73,70,67,96,93,87,29.90,29.77,3,0,10,0.30
2013-8-29,86,75,64,72,70,62,96,85,58,29.99,29.82,1,0,5,0.00
2013-8-30,89,74,60,73,67,59,98,80,51,30.00,29.83,3,1,8,0.00
2013-8-31,89,80,72,75,71,67,89,75,57,29.85,29.74,3,0,7,0.00
2013-9-1,91,77,64,73,68,63,97,78,52,29.82,29.72,4,0,11,0.00
2013-9-2,90,77,67,73,69,65,96,79,50,29.78,29.68,6,1,9,0.00
2013-9-3,83,73,60,68,62,55,91,70,43,29.96,29.71,8,2,13,0.00
2013-9-4,83,66,52,62,55,50,96,72,36,30.08,29.96,5,1,8,0.00
2013-9-5,81,67,51,65,56,50,96,71,45,30.12,30.01,8,2,14,0.00
2013-9-6,78,60,45,52,48,43,96,70,33,30.25,30.11,2,0,7,0.00
2013-9-7,84,62,45,60,52,43,97,73,30,30.13,29.92,4,0,7,0.00
2013-9-8,87,72,58,68,62,54,94,75,50,30.02,29.85,5,1,10,0.00
2013-9-9,79,68,60,65,58,51,93,73,55,30.17,30.02,4,0,9,0.00
2013-9-10,94,79,60,74,69,58,96,74,50,30.14,30.03,3,1,9,0.00
2013-9-11,94,80,66,75,70,64,97,76,49,30.11,29.96,5,0,8,0.00
2013-9-12,92,76,64,74,67,63,97,75,45,29.97,29.70,9,2,15,0.00
2013-9-13,77,67,53,63,56,48,90,69,40,29.94,29.69,10,3,21,0.00
2013-9-14,68,54,43,49,44,40,94,72,44,30.15,29.94,8,2,13,0.00
2013-9-15,79,59,38,58,49,37,98,74,43,30.21,30.05,3,0,8,0.00
2013-9-16,71,62,53,59,56,50,95,83,57,30.22,30.00,5,1,7,0.09
2013-9-17,70,55,39,53,44,37,93,69,32,30.41,30.22,2,0,5,0.00
2013-9-18,72,52,33,51,43,32,97,75,41,30.32,30.15,3,0,7,0.00
2013-9-19,78,59,43,60,51,42,97,78,52,30.17,30.04,3,0,7,0.00
2013-9-20,81,65,48,64,58,46,97,79,54,30.06,29.90,4,1,11,0.00
2013-9-21,71,62,54,64,60,53,97,92,79,29.90,29.65,6,1,12,0.61
2013-9-22,72,59,45,57,52,43,97,79,51,29.96,29.72,5,1,8,0.02
2013-9-23,66,54,43,49,45,40,94,73,51,30.09,29.95,5,1,9,0.00
2013-9-24,76,53,36,54,45,34,100,77,43,30.12,29.93,4,0,7,0.00
2013-9-25,77,54,38,54,46,37,97,76,36,30.00,29.86,2,0,4,0.00
2013-9-26,78,57,42,55,47,41,97,75,31,30.06,29.92,3,0,7,0.00
2013-9-27,75,56,41,58,49,40,97,80,50,30.21,30.06,3,0,5,0.00
2013-9-28,67,56,43,57,50,42,97,84,59,30.30,30.20,1,0,5,0.00
2013-9-29,74,55,40,56,48,38,97,79,46,30.20,30.04,2,0,6,0.00
2013-9-30,79,58,40,56,49,39,97,77,42,30.08,29.95,2,0,6,0.00
2013-10-1,82,64,49,62,56,47,96,76,41,30.07,29.95,7,1,12,0.00
2013-10-2,85,65,48,64,56,46,98,76,43,30.08,29.98,6,1,10,0.00
2013-10-3,85,66,51,65,59,50,97,78,47,30.11,30.00,2,0,7,0.00
2013-10-4,88,68,54,67,60,52,97,79,47,30.08,29.98,4,0,9,0.00
2013-10-5,89,71,57,68,62,56,97,76,42,30.08,29.96,2,0,7,0.00
2013-10-6,89,72,56,67,62,55,97,72,45,29.99,29.84,6,1,13,0.00
2013-10-7,74,63,46,67,57,43,95,82,59,30.05,29.67,9,3,29,0.65
2013-10-8,69,54,41,50,45,39,96,74,44,30.29,30.05,5,0,6,0.00
2013-10-9,60,51,41,50,45,40,97,81,51,30.34,30.24,2,0,5,0.03
2013-10-10,54,52,50,53,50,47,96,93,83,30.24,30.02,3,1,9,2.18
2013-10-11,60,56,52,59,55,51,97,97,95,30.03,29.97,3,1,6,1.63
2013-10-12,63,60,57,61,59,56,97,95,90,30.17,29.99,2,0,9,0.51
2013-10-13,58,57,56,57,56,55,97,96,95,30.30,30.16,1,0,4,0.40
2013-10-14,67,57,51,58,54,49,97,90,70,30.32,30.21,1,0,5,0.00
2013-10-15,70,56,45,59,51,44,98,85,56,30.22,30.05,1,0,5,0.00
2013-10-16,71,58,45,61,54,44,98,88,70,30.06,29.87,1,0,5,0.00
2013-10-17,76,62,53,65,58,47,97,87,64,29.88,29.67,9,1,14,0.08
2013-10-18,66,54,40,47,43,38,95,67,42,30.00,29.84,8,3,13,0.00
2013-10-19,63,49,37,54,44,36,100,84,66,29.98,29.74,10,1,13,0.08
2013-10-20,62,48,35,42,37,32,94,69,37,30.08,29.89,9,2,13,0.00
2013-10-21,68,49,30,46,39,29,97,72,40,30.13,29.91,4,1,12,0.00
2013-10-22,60,52,35,49,43,32,89,72,48,29.91,29.81,7,2,14,0.00
2013-10-23,49,41,32,40,36,30,96,83,63,29.92,29.70,6,2,13,0.00
2013-10-24,49,41,35,35,32,28,86,69,47,30.14,29.91,9,3,12,0.00
2013-10-25,51,38,26,36,30,24,92,73,50,30.31,30.13,9,3,14,0.00
2013-10-26,57,41,22,34,28,20,94,64,36,30.31,29.91,9,1,16,0.00
2013-10-27,59,46,30,39,34,28,92,65,41,30.13,29.95,8,2,13,0.00
2013-10-28,62,41,26,42,34,25,96,77,44,30.28,30.13,1,0,4,0.00
2013-10-29,62,40,29,44,35,28,97,86,46,30.39,30.27,0,0,2,0.00
2013-10-30,69,54,42,56,49,41,93,81,58,30.29,30.11,2,0,4,0.00
2013-10-31,67,60,50,60,56,48,95,86,73,30.13,29.67,5,1,13,0.02
2013-11-1,74,62,43,62,52,41,95,72,35,29.67,29.49,13,3,23,0.34
2013-11-2,62,50,37,50,42,35,97,75,47,29.89,29.64,12,3,18,0.00
2013-11-3,56,46,28,40,32,21,90,63,27,30.44,29.89,5,2,9,0.00
2013-11-4,44,35,24,30,25,20,92,68,45,30.63,30.44,2,0,5,0.00
2013-11-5,52,41,27,44,34,25,94,78,52,30.62,30.42,2,0,7,0.00
2013-11-6,72,57,45,52,48,41,91,73,49,30.43,29.99,5,1,12,0.00
2013-11-7,59,52,36,54,43,24,92,72,49,30.08,29.84,10,3,18,0.08
2013-11-8,49,39,23,30,26,21,91,62,40,30.32,30.06,10,3,17,0.00
2013-11-9,56,40,22,32,27,20,95,63,36,30.34,30.01,5,1,11,0.01
2013-11-10,58,49,38,36,31,27,71,50,38,30.23,29.97,14,5,22,0.00
2013-11-11,59,44,29,37,30,24,87,59,35,30.28,29.99,7,1,11,0.00
2013-11-12,51,37,24,39,24,15,79,59,41,30.41,29.97,7,3,13,0.00
2013-11-13,42,31,20,22,19,16,85,61,39,30.50,30.37,9,3,13,0.00
2013-11-14,59,34,17,27,19,14,94,64,21,30.37,30.21,1,0,7,0.00
2013-11-15,62,40,20,40,25,16,92,63,18,30.28,30.16,2,0,6,0.01
2013-11-16,62,50,36,50,44,33,95,83,65,30.28,30.18,3,0,8,0.00
2013-11-17,64,56,43,57,52,41,97,88,75,30.18,29.65,5,2,11,0.02
2013-11-18,64,57,46,58,35,26,90,46,25,29.94,29.64,13,6,21,0.12
2013-11-19,46,39,27,29,26,22,85,60,46,30.38,29.94,8,3,15,0.00
2013-11-20,47,30,20,28,22,17,94,74,36,30.56,30.37,2,0,8,0.00
2013-11-21,49,34,20,39,30,17,95,85,68,30.57,30.36,1,0,5,0.00
2013-11-22,63,51,39,54,45,37,92,80,67,30.36,30.00,7,1,13,0.00
2013-11-23,52,39,27,43,27,12,79,61,45,30.23,30.04,12,6,17,0.00
2013-11-24,29,24,18,14,7,3,65,49,38,30.53,30.23,12,6,23,0.00
2013-11-25,37,26,12,14,10,7,84,53,29,30.55,30.30,3,1,8,0.00
2013-11-26,36,34,32,33,27,14,95,80,40,30.30,29.65,4,0,7,1.22
2013-11-27,38,34,26,35,28,14,96,81,60,30.06,29.57,11,5,20,0.08
2013-11-28,35,29,23,24,18,13,82,63,51,30.46,30.07,10,4,17,0.00
2013-11-29,40,28,16,25,20,14,92,74,49,30.72,30.44,6,1,12,0.00
2013-11-30,36,23,14,24,18,11,94,81,58,30.72,30.35,2,0,7,0.00
2013-12-1,40,29,15,30,24,13,94,82,67,30.35,30.01,1,0,1,0.00
2013-12-2,44,38,33,34,31,29,88,78,65,30.01,29.86,0,0,2,0.00
2013-12-3,56,37,28,40,32,26,95,83,54,29.98,29.86,1,0,3,0.00
2013-12-4,57,40,26,45,36,25,97,86,63,30.07,29.97,1,0,4,0.00
2013-12-5,67,52,35,58,48,33,98,88,71,30.03,29.88,3,0,9,0.03
2013-12-6,59,45,35,58,43,34,96,93,90,30.17,29.84,5,1,12,1.74
2013-12-7,38,34,25,34,28,21,95,80,65,30.56,30.15,6,1,10,0.04
2013-12-8,27,24,22,26,21,18,95,88,74,30.58,30.31,1,0,2,0.00
2013-12-9,37,32,27,34,30,26,96,93,79,30.32,30.03,4,0,8,0.47
2013-12-10,36,32,24,32,26,15,100,77,54,30.21,29.98,14,3,19,0.26
2013-12-11,39,24,12,22,15,8,92,70,44,30.39,30.21,6,0,9,0.18
2013-12-12,35,23,9,23,12,5,92,62,42,30.43,30.24,10,3,15,0.00
2013-12-13,42,25,9,22,15,5,87,69,41,30.31,30.21,3,0,5,0.02
2013-12-14,34,31,26,31,29,22,96,91,85,30.31,29.75,2,0,3,0.22
2013-12-15,41,34,29,37,28,22,97,81,66,29.94,29.65,12,4,19,0.11
2013-12-16,34,31,29,26,25,23,86,77,69,30.17,29.94,8,1,13,0.00
2013-12-17,40,32,27,33,28,24,93,85,72,30.12,29.91,2,0,6,0.00
2013-12-18,38,30,17,27,22,15,91,72,56,30.21,30.00,9,3,14,0.00
2013-12-19,58,38,17,35,26,14,93,66,40,30.18,30.04,2,0,7,0.00
2013-12-20,58,50,41,37,33,30,66,50,42,30.08,29.94,0,0,0,0.00
2013-12-21,70,59,52,59,46,37,94,64,52,29.97,29.81,0,0,1,0.00
2013-12-22,70,63,60,62,58,55,94,84,71,29.95,29.73,7,1,14,0.19
2013-12-23,61,50,33,57,45,25,97,82,67,30.23,29.86,9,2,15,0.38
2013-12-24,39,28,19,26,18,7,92,66,46,30.49,30.20,13,4,21,0.00
2013-12-25,32,23,16,15,12,9,75,62,47,30.58,30.33,3,1,7,0.00
2013-12-26,44,31,16,28,19,12,90,61,40,30.35,30.22,12,2,17,0.00
2013-12-27,51,32,16,23,18,14,92,64,25,30.40,30.29,8,1,13,0.00
2013-12-28,58,42,20,29,24,17,92,53,30,30.32,30.08,3,1,9,0.00
2013-12-29,49,44,39,46,38,26,100,83,41,30.08,29.56,10,1,16,1.26
2013-12-30,46,36,24,39,29,20,90,76,69,30.16,29.81,11,2,15,0.00
2013-12-31,41,29,18,29,20,15,93,72,46,30.31,30.11,13,3,20,0.00
2014-1-1,46,25,18,27,21,15,92,85,46,30.39,30.10,2,0,4,0.00
2014-1-2,32,28,21,28,26,19,94,89,81,30.10,29.65,1,0,3,0.00